Location: Nashville
(36.1660°N, 86.7840°W)
Time: 11:57:25
(UTC-05:00)

SPROUT - Visible Passes

Search period start: 17 May 2022 00:00
Search period end: 27 May 2022 00:00
Orbit: 590 x 603 km, 97.9° (Epoch: 17 May)

Date Brightness Start Highest point End Pass type
(mag) Time Alt. Az. Time Alt. Az. Time Alt. Az.
17 May ? 00:54:13 17° NNE 00:54:13 17° NNE 00:55:39 10° NNE visible
17 May ? 02:30:53 11° NW 02:30:53 11° NW 02:31:11 10° NW visible
18 May ? 01:04:12 20° NNE 01:04:12 20° NNE 01:05:51 10° N visible
19 May ? 01:14:11 22° NNE 01:14:11 22° NNE 01:15:57 10° N visible
20 May ? 01:24:08 24° N 01:24:08 24° N 01:25:59 10° N visible
21 May ? 01:34:06 25° N 01:34:06 25° N 01:35:57 10° N visible
22 May ? 01:44:02 25° NNW 01:44:02 25° NNW 01:45:51 10° NNW visible
23 May ? 01:53:58 24° NNW 01:53:58 24° NNW 01:55:41 10° NNW visible
24 May ? 00:27:13 11° NE 00:27:13 11° NE 00:27:56 10° NE visible
24 May ? 02:03:53 21° NNW 02:03:53 21° NNW 02:05:28 10° NNW visible
25 May ? 00:37:08 14° NE 00:37:08 14° NE 00:38:30 10° NNE visible
25 May ? 02:13:47 19° NW 02:13:47 19° NW 02:15:10 10° NNW visible
26 May ? 00:47:02 17° NE 00:47:02 17° NE 00:48:47 10° NNE visible
26 May ? 02:23:41 16° NW 02:23:41 16° NW 02:24:47 10° NW visible
